Retour au catalogue

COSMOS 2251 DEB

ActifLEO
NORAD 34635·DEBRIS·🇷🇺 Russia

Lancé Jun 16, 1993 depuis Plesetsk Cosmodrome

Loading…

Prochains Passages (prochaines 24 heures)

TLE

FraisSource: Space-Track

Époque: Sep 14, 2026, 11:29 UTC

1 34635U 93036XG  26257.47892416  .00003706  00000-0  59863-3 0  9995
2 34635  74.0411 256.2576 0032127 256.0911 260.2028 14.71413914772711

Suivez COSMOS 2251 DEB en temps réel avec AllMySat

Download on the App Store